La Aurora Airport
MGGT : rendu visible

Aérodrome :











RETROUVEZ-NOUS SUR...

 
LOGIN :

S'inscrire | Disclaimer

   EN    FR    IT 

 









Légende :    VFR   VFR Marginal   IFR   IFR Intensif   IFR Très Intensif
Visi : 
Plafond : 
>= 8 km
>= 3000ft
5 à 8 km
1000 à 3000 ft
1500m à 5 km
500 à 1000 ft
800 à 1500m
200 à 500 ft
< 800m
< 200 ft
Symboles :   Orages  Brouillard  Fortes neiges  Fortes précipitations  Vent > 20 kt






- Altitude de l'aérodrome : 4952 ft
- Code IATA : GUA


MGGT - La Aurora

DERNIER METAR :
  • 270400Z 36004KT 6000 BKN016 20/17 Q1027 A3033 HZ

METARs EXPIRÉS :
  • 270300Z 00000KT 6000 BKN016 20/17 Q1027 A3033 HZ
  • 270200Z 18004KT 6000 BKN016 20/16 Q1026 A3030 HZ

TAF MGGT
Valide du 27 à 00h jusqu'au 28 à 00h UTC


262330Z 2700/2724 VRB03KT 9999 SCT016 TX26/2720Z TN15/2712Z
BECMG 2715/2717 36016KT BKN018
BECMG 2720/2722 36020KT SCT020 BKN090



MET'MAP, la Météo Aéronautique d'un coup d'oeil ! - Copyright ORBIFLY Décembre 2007 - Disclaimer

ORBIFLY MET'MAP TEAM :

Programmation & Développement : Alexandra Zaïnal
Sur une idée originale de : Baudouin d'Aumeries
Assistance à la programmation : Marc-Olivier Méhu
Soutien technique & logistique : Manuel Goepfert

Contact : metmap@orbifly.com




SOURCES & CREDITS :

   NOAA       Earth
Advisory